This is the latest recevied weather packets stored in our database for station/object K6GMW. If no packets are shown the sender has not sent any weather packets the latest 10 day(s).
| Time | Temp. | Humidity | Pressure | Rain* | Wind** | Luminosity | Snow |
|---|---|---|---|---|---|---|---|
| 1778162585 | 15° C | 78% | 1020.8 hPa | 0 mm | - | 183 W/m² | - |
| 1778162282 | 14.44° C | 80% | 1021.1 hPa | 0 mm | - | 418 W/m² | - |
| 1778161979 | 13.89° C | 81% | 1021 hPa | 0 mm | - | 502 W/m² | - |
| 1778161676 | 14.44° C | 80% | 1020.9 hPa | 0 mm | - | 97 W/m² | - |
| 1778161372 | 14.44° C | 83% | 1021 hPa | 0 mm | - | 190 W/m² | - |
| 1778161068 | 14.44° C | 82% | 1020.8 hPa | 0 mm | - | 400 W/m² | - |
| 1778160765 | 13.89° C | 85% | 1020.8 hPa | 0 mm | - | 422 W/m² | - |
| 1778160463 | 13.33° C | 87% | 1020.9 hPa | 0 mm | - | 339 W/m² | - |
| 1778160159 | 13.33° C | 89% | 1020.9 hPa | 0 mm | - | 329 W/m² | - |
| 1778159856 | 12.78° C | 89% | 1021.1 hPa | 0 mm | - | 262 W/m² | - |
| 1778159553 | 12.78° C | 93% | 1021 hPa | 0 mm | - | 263 W/m² | - |
| 1778159250 | 12.22° C | 93% | 1021.2 hPa | 0 mm | - | 243 W/m² | - |
| 1778158947 | 12.22° C | 94% | 1021.1 hPa | 0 mm | - | 180 W/m² | - |
| 1778158646 | 11.67° C | 95% | 1020.8 hPa | 0 mm | - | 198 W/m² | - |
| 1778158343 | 11.67° C | 95% | 1020.8 hPa | 0 mm | - | 114 W/m² | - |
| 1778158040 | 11.67° C | 95% | 1020.7 hPa | 0 mm | - | 85 W/m² | - |
| 1778157737 | 11.67° C | 95% | 1020.4 hPa | 0 mm | - | 82 W/m² | - |
| 1778157435 | 11.67° C | 95% | 1020.6 hPa | 0 mm | - | 75 W/m² | - |
| 1778157132 | 11.11° C | 96% | 1020.4 hPa | 0 mm | - | 59 W/m² | - |
| 1778156827 | 11.11° C | 96% | 1020.7 hPa | 0 mm | - | 66 W/m² | - |
| 1778156523 | 11.11° C | 96% | 1020.4 hPa | 0 mm | - | 79 W/m² | - |
| 1778156219 | 11.11° C | 96% | 1020.2 hPa | 0 mm | - | 76 W/m² | - |
| 1778155915 | 10.56° C | 96% | 1020.1 hPa | 0 mm | - | 66 W/m² | - |
| 1778155612 | 10.56° C | 96% | 1019.9 hPa | 0 mm | - | 47 W/m² | - |
| 1778155309 | 10.56° C | 96% | 1019.7 hPa | 0 mm | - | 38 W/m² | - |
* Rain latest hour (hover to see other rain measurements)
** Current wind speed in m/s (hover to see current wind gust speed)